Regional Weather Roundup
Issued by NWS Spokane, WA

Home | Current Version | Previous Version | Text Only | Print | Product List | Glossary On
Versions: 1 2 3 4 5 6 7 8 9 10 11 12 13 14 15 16 17 18 19 20 21 22 23 24 25 26 27 28 29 30 31 32 33 34 35 36 37 38 39 40 41 42 43 44 45 46 47 48 49 50
000
NZUS01 KOTX 230210
RWROTX
EASTERN WASHINGTON/NORTHERN IDAHO ROUNDUP
NATIONAL WEATHER SERVICE, SPOKANE WA
700 PM PDT FRI AUG 22 2014

Note: "fair" indicated few or no clouds below 12,000 feet with no
significant weather and/or obstructions to visibility.

...NORTHEAST WASHINGTON AND NORTHERN IDAHO PANHANDLE...

CITY           SKY/WX    TMP DP  RH WIND       PRES   REMARKS
SPOKANE INTL   MOCLDY    69  48  47 N14G24    30.01S
SPOKANE DOWNTO PTCLDY    71  48  43 NE5       30.01S
COEUR D ALENE  MOCLDY   N/A N/A N/A N16G22    30.01S
DEER PARK      PTCLDY    68  45  43 NE13G23   30.04S
SANDPOINT      MOCLDY    64  48  55 N20       30.06S

...SOUTHEAST WASHINGTON AND SOUTHERN IDAHO PANHANDLE...

CITY           SKY/WX    TMP DP  RH WIND       PRES   REMARKS
WALLA WALLA    MOCLDY    69  52  54 S13       29.94F
PULLMAN/MOSCOW CLOUDY    65  48  54 E3        29.99F
LEWISTON       LGT RAIN  64  56  75 SE12      29.97R
LOWELL           N/A     58  57  97 CALM      30.04F

...COLUMBIA BASIN...

CITY           SKY/WX    TMP DP  RH WIND       PRES   REMARKS
EPHRATA        PTCLDY    75  46  35 N13       29.98R
MOSES LAKE     PTCLDY    76  45  33 N14       29.97R
TRI CITIES     CLEAR     77  53  43 NW8       29.91R
HERMISTON      PTCLDY    78  50  37 W7        29.92S
PENDLETON      PTCLDY    75  47  36 W13       29.95S

...EAST SLOPES CASCADES...

CITY           SKY/WX    TMP DP  RH WIND       PRES   REMARKS
THE DALLES     CLEAR     78  52  40 NW17      29.95R
YAKIMA         MOCLDY    73  56  54 N7        30.01R
ELLENSBURG     MOCLDY    69  51  52 NW15      30.03R
WENATCHEE      PTCLDY    75  46  35 NW15      30.01R
OMAK           PTCLDY    68  53  58 NW8       30.06R

...SOUTHERN BRITISH COLUMBIA...

CITY           SKY/WX    TMP DP  RH WIND       PRES   REMARKS
PENTICTON      MOCLDY    70  55  60 NE9       30.08S
CASTLEGAR      MOCLDY    70  48  46 N7        30.08R
CRANBROOK      MOCLDY    61  45  55 S5        30.19R

...WESTERN MONTANA...

CITY           SKY/WX    TMP DP  RH WIND       PRES   REMARKS
MISSOULA       CLOUDY    61  49  64 N15       30.05R

...NEIGHBORING CITIES...

CITY           SKY/WX    TMP DP  RH WIND       PRES   REMARKS
SEATTLE        MOSUNNY   70  54  56 W6        30.07S
CALGARY        CLOUDY    52  45  76 NE9       30.33R



USA.gov is the U.S. government's official web portal to all federal, state and local government web resources and services.